📊 Raw Sensor Data

Showing records 38126 to 38150 of 84,924 total

ID Distance (ft) Battery V Battery A Int Temp (°F) Int Humid (%) Ext Temp (°F) Solar V RSSI SNR Time Stamp
46811 15.0 3.77 -5 54 44 55 0.00 -69 8 07/20/2025 04:45 AM
46810 15.0 3.77 -5 54 44 55 0.00 -72 8 07/20/2025 04:30 AM
46809 15.0 3.90 -5 54 44 55 0.00 -70 8 07/20/2025 04:15 AM
46808 15.0 3.77 -5 54 44 55 0.00 -71 9 07/20/2025 04:00 AM
46807 15.0 3.77 -5 54 44 55 0.00 -70 8 07/20/2025 03:45 AM
46806 15.0 3.90 -5 54 44 55 0.00 -70 8 07/20/2025 03:30 AM
46805 15.0 3.77 -5 54 44 55 0.00 -70 8 07/20/2025 03:15 AM
46804 15.0 3.77 -5 54 44 56 0.00 -70 8 07/20/2025 03:00 AM
46803 15.0 3.90 -5 54 44 56 0.10 -70 8 07/20/2025 02:45 AM
46802 15.0 3.90 -5 54 44 55 0.00 -69 8 07/20/2025 02:30 AM
46801 15.0 3.77 -5 55 44 56 0.00 -69 8 07/20/2025 02:15 AM
46800 15.0 3.77 -5 55 44 56 0.00 -69 8 07/20/2025 02:00 AM
46799 15.0 3.90 -5 56 44 57 0.00 -70 8 07/20/2025 01:45 AM
46798 15.0 3.91 -5 56 44 57 0.00 -71 8 07/20/2025 01:30 AM
46797 15.0 3.77 -5 56 44 58 0.00 -70 8 07/20/2025 01:15 AM
46796 15.0 3.77 -5 57 45 58 0.00 -70 8 07/20/2025 01:00 AM
46795 15.0 3.76 -5 57 45 59 0.00 -68 8 07/20/2025 12:45 AM
46794 15.0 3.90 -5 57 45 58 0.00 -69 8 07/20/2025 12:30 AM
46793 15.0 3.78 -5 57 45 58 0.10 -71 8 07/20/2025 12:15 AM
46792 15.0 3.76 -5 57 45 59 0.00 -68 8 07/20/2025 12:00 AM
46791 15.0 3.77 -5 58 46 59 0.00 -69 7 07/19/2025 11:45 PM
46790 14.9 3.77 -5 58 46 59 0.00 -70 8 07/19/2025 11:30 PM
46789 15.0 3.91 -5 59 46 59 0.00 -70 8 07/19/2025 11:15 PM
46788 15.0 3.78 -35 59 47 60 0.00 -72 8 07/19/2025 11:00 PM
46787 15.3 3.77 -5 60 47 61 0.00 -70 8 07/19/2025 10:45 PM